User: anonymous
Location: Writing-on-Stone Provincial Park
(49.0825°N, 111.6163°W)
Time: 05:42:14
(UTC-06:00)
Language:

BREEZE-M DEB (TANK) - Orbit

View from above orbital plane
View from above orbital plane
View from above satellite
View from above satellite

Ground track
Ground track

The orbit data is extracted from the following two-line orbital elements,

1 29649U 06056B   14114.17540998  .00005084  00000-0  87028-3 0  8883
2 29649 049.5401 350.0589 5425900 167.6936 353.8538 04.93215101130575
Epoch (UTC): 24 April 2014 04:12:35
Eccentricity: 0.5425900
inclination: 49.5401°
perigee height: 290 km
apogee height: 16110 km
right ascension of ascending node: 350.0589°
argument of perigee: 167.6936°
revolutions per day: 4.93215101
mean anomaly at epoch: 353.8538°
orbit number at epoch: 13057

The dashed part of the orbit path shows where the satellite is in the earth's shadow,  

DLR